Location: Brede
(50.9167°N, 0.6000°E)
Time: 02:27:31
(UTC+00:00)

Cosmos 1975 Rocket - Pass Details

Date: 08 August 2020
Orbit: 603 x 634 km, 82.5° (Epoch: 19 September)

Event Time Altitude Azimuth Distance (km) Brightness Sun altitude
Rises 00:55:52 0° 343° (NNW) 2,946 7.5 -22.0°
Reaches altitude 10° 00:58:15 10° 335° (NNW) 2,032 6.4 -22.0°
Maximum altitude 01:02:22 36° 269° (W) 1,007 3.9 -21.8°
Enters shadow 01:02:35 36° 262° (W) 1,011 3.9 -21.8°
